Weather History for Whitefield, NH

Change the Weather History Date:

Wednesday, April 10, 2013

  Actual Average Record
Temperature  
Mean Temperature 42 °F -  
Max Temperature 48 °F 47 °F 63 °F (2011)
Min Temperature 37 °F 23 °F 7 °F (1997)
Degree Days  
Heating Degree Days 22    
Moisture  
Dew Point 38 °F    
Average Humidity 87    
Maximum Humidity 100    
Minimum Humidity 66    
Precipitation  
Precipitation 0.22 in - - ()
Sea Level Pressure  
Sea Level Pressure 29.95 in    
Wind  
Wind Speed 1 mph (WSW)    
Max Wind Speed 7 mph    
Max Gust Speed -    
Visibility 7 miles    
Events Rain    
Averages and records for this station are not official NWS values.
T = Trace of Precipitation, MM = Missing Value Source: NWS Daily Summary

Daily Weather History Graph

Daily Weather History Graph

Search for Another Location

Airport:

Trip Planner

Search our weather history database for the weather conditions in past years. The results will help you decide how hot, cold, wet, or windy it might be!

Date:

Astronomy

Apr. 10, 2013 Rise Set
Actual Time 6:10 AM EDT 7:24 PM EDT
Civil Twilight 5:40 AM EDT 7:54 PM EDT
Nautical Twilight 5:04 AM EDT 8:30 PM EDT
Astronomical Twilight 4:27 AM EDT 9:09 PM EDT
Moon 6:04 AM EDT (4/10) 8:00 PM EDT (4/10)
Length of Visible Light 14h 13m
Length of Day
13h 14m
New Moon, 0% of the Moon is Illuminated
Apr 10
New Moon
Apr 18
First Quarter
Apr 25
Full
May 2
Last Quarter
May 9
New

Hourly Weather History & Observations

Time (EDT) Temp. Windchill Dew Point Humidity Pressure Visibility Wind Dir Wind Speed Gust Speed Precip Events Conditions
12:52 AM 37.0 °F - 35.1 °F 93% 29.96 in 10.0 mi Calm Calm - 0.01 in Rain Light Rain
1:52 AM 37.0 °F - 35.1 °F 93% 29.98 in 7.0 mi Calm Calm - 0.04 in Rain Light Rain
2:52 AM 37.0 °F - 36.0 °F 96% 29.98 in 7.0 mi Calm Calm - 0.09 in Rain Light Rain
3:29 AM 37.4 °F - 35.6 °F 93% 29.93 in 1.8 mi Calm Calm - 0.03 in Rain Light Rain
3:45 AM 37.4 °F - 35.6 °F 93% 29.92 in 2.0 mi Calm Calm - 0.03 in Rain Light Rain
3:52 AM 37.0 °F - 35.1 °F 93% 29.95 in 3.0 mi Calm Calm - 0.03 in Rain Light Rain
4:13 AM 37.4 °F - 35.6 °F 93% 29.92 in 1.8 mi Calm Calm - 0.01 in Rain Light Rain
4:23 AM 37.4 °F - 35.6 °F 93% 29.93 in 3.0 mi Calm Calm - 0.01 in Rain Light Rain
4:35 AM 37.4 °F - 35.6 °F 93% 29.94 in 5.0 mi Calm Calm - 0.01 in Rain Light Rain
4:52 AM 37.9 °F 35.5 °F 36.0 °F 93% 29.96 in 9.0 mi SSE 3.5 mph - 0.01 in Rain Light Rain
5:30 AM 37.4 °F - 35.6 °F 93% 29.92 in 9.0 mi Calm Calm - 0.00 in   Overcast
5:52 AM 37.9 °F - 36.0 °F 93% 29.95 in 9.0 mi Calm Calm - 0.00 in   Overcast
6:52 AM 37.9 °F - 36.0 °F 93% 29.97 in 8.0 mi Calm Calm - N/A   Overcast
7:52 AM 39.0 °F - 37.0 °F 93% 29.97 in 8.0 mi Calm Calm - N/A   Overcast
8:08 AM 39.2 °F - 37.4 °F 93% 29.95 in 9.0 mi Calm Calm - N/A   Overcast
8:52 AM 39.0 °F - 37.9 °F 96% 29.98 in 9.0 mi Calm Calm - N/A   Overcast
9:29 AM 39.2 °F - 37.4 °F 93% 29.95 in 10.0 mi Calm Calm - N/A   Overcast
9:52 AM 41.0 °F - 39.0 °F 93% 30.00 in 8.0 mi Calm Calm - N/A   Overcast
10:34 AM 42.8 °F - 39.2 °F 87% 29.98 in 10.0 mi Calm Calm - N/A   Overcast
10:52 AM 43.0 °F - 39.9 °F 89% 30.01 in 10.0 mi Calm Calm - N/A   Overcast
11:21 AM 44.6 °F - 39.2 °F 81% 29.97 in 10.0 mi Calm Calm - N/A   Overcast
11:35 AM 44.6 °F - 39.2 °F 81% 29.96 in 10.0 mi Calm Calm - N/A   Overcast
11:52 AM 45.0 °F - 39.9 °F 82% 29.99 in 10.0 mi Calm Calm - N/A   Overcast
12:38 PM 46.4 °F - 39.2 °F 76% 29.96 in 10.0 mi Calm Calm - N/A   Overcast
12:52 PM 46.0 °F - 39.9 °F 79% 29.98 in 10.0 mi Calm Calm - N/A   Overcast
1:52 PM 48.0 °F - 39.0 °F 71% 29.98 in 10.0 mi SW 4.6 mph - N/A   Overcast
2:10 PM 48.2 °F - 39.2 °F 71% 29.94 in 10.0 mi SSW 4.6 mph - N/A   Overcast
2:25 PM 48.2 °F - 39.2 °F 71% 29.95 in 10.0 mi Calm Calm - N/A   Overcast
2:52 PM 48.9 °F - 37.9 °F 66% 29.97 in 10.0 mi WNW 6.9 mph - N/A   Overcast
3:02 PM 48.2 °F - 37.4 °F 66% 29.94 in 10.0 mi Variable 4.6 mph - N/A   Overcast
3:52 PM 48.0 °F - 37.0 °F 66% 29.94 in 10.0 mi WNW 4.6 mph - N/A   Overcast
4:52 PM 46.9 °F - 37.0 °F 68% 29.94 in 10.0 mi NNW 3.5 mph - N/A   Overcast
5:52 PM 46.0 °F - 37.0 °F 71% 29.95 in 10.0 mi Calm Calm - N/A   Overcast
6:52 PM 44.1 °F - 39.9 °F 85% 29.92 in 10.0 mi Calm Calm - 0.00 in   Overcast
7:52 PM 43.0 °F - 39.0 °F 86% 29.94 in 10.0 mi Calm Calm - 0.00 in Rain Light Rain
8:52 PM 41.0 °F - 39.0 °F 93% 29.94 in 8.0 mi Calm Calm - 0.01 in   Overcast
9:44 PM 39.2 °F - 39.2 °F 100% 29.94 in 4.0 mi Calm Calm - 0.00 in Rain Light Rain
9:52 PM 39.9 °F - 39.0 °F 97% 29.96 in 5.0 mi Calm Calm - 0.01 in Rain Light Rain
10:12 PM 39.2 °F - 37.4 °F 93% 29.93 in 2.5 mi Calm Calm - 0.01 in Rain Light Rain
10:19 PM 39.2 °F - 37.4 °F 93% 29.92 in 3.0 mi Calm Calm - 0.01 in Rain Light Rain
10:26 PM 39.2 °F - 37.4 °F 93% 29.92 in 2.0 mi Calm Calm - 0.01 in Rain Light Rain
10:35 PM 39.2 °F - 37.4 °F 93% 29.92 in 7.0 mi Calm Calm - 0.02 in Rain Light Rain
10:45 PM 39.2 °F - 37.4 °F 93% 29.91 in 1.8 mi Calm Calm - 0.02 in Rain Light Rain
10:52 PM 39.0 °F 36.8 °F 37.0 °F 93% 29.94 in 1.5 mi North 3.5 mph - 0.02 in Rain Light Rain
10:55 PM 39.2 °F - 37.4 °F 93% 29.92 in 2.0 mi Calm Calm - 0.00 in Rain Light Rain
11:03 PM 39.2 °F - 37.4 °F 93% 29.92 in 8.0 mi Calm Calm - 0.00 in   Overcast
11:33 PM 39.2 °F 37.0 °F 37.4 °F 93% 29.92 in 9.0 mi SSE 3.5 mph - 0.00 in   Overcast
11:52 PM 39.9 °F - 37.9 °F 93% 29.94 in 9.0 mi Calm Calm - 0.00 in   Overcast